| time (UTC) | temp F | wind direction | speed MPH | gust MPH | rain 1hr in | rain 24hr in | rain mn in | humidity % | barometer mb |
| 20260504180138 | 79 | 157 | 6.0 | 8.0 | 0.00 | 0.00 | 0.00 | 48 | 1016.9 |
| 20260504175635 | 79 | 252 | 3.0 | 7.0 | 0.00 | 0.00 | 0.00 | 49 | 1016.9 |
| 20260504175131 | 77 | 235 | 8.0 | 21.0 | 0.00 | 0.00 | 0.00 | 50 | 1016.9 |
| 20260504174630 | 78 | 157 | 8.0 | 15.0 | 0.00 | 0.00 | 0.00 | 50 | 1016.8 |
| 20260504174126 | 78 | 222 | 6.0 | 10.0 | 0.00 | 0.00 | 0.00 | 49 | 1017.1 |
| 20260504173623 | 78 | 226 | 4.0 | 10.0 | 0.00 | 0.00 | 0.00 | 52 | 1017.4 |
| 20260504173121 | 77 | 159 | 1.0 | 13.0 | 0.00 | 0.00 | 0.00 | 50 | 1017.2 |
| 20260504172617 | 78 | 166 | 6.0 | 9.0 | 0.00 | 0.00 | 0.00 | 48 | 1017.5 |
| 20260504172114 | 79 | 179 | 5.0 | 17.0 | 0.00 | 0.00 | 0.00 | 48 | 1017.5 |
| 20260504171610 | 79 | 189 | 3.0 | 7.0 | 0.00 | 0.00 | 0.00 | 52 | 1017.4 |
| 20260504171107 | 78 | 161 | 1.0 | 6.0 | 0.00 | 0.00 | 0.00 | 49 | 1017.7 |
| 20260504170603 | 77 | 213 | 5.0 | 14.0 | 0.00 | 0.00 | 0.00 | 52 | 1017.6 |
| 20260504150946 | 73 | 207 | 1.0 | 5.0 | 0.00 | 0.00 | 0.00 | 62 | 1018.6 |
| 20260504150443 | 73 | 80 | 4.0 | 5.0 | 0.00 | 0.00 | 0.00 | 62 | 1018.6 |
| 20260504140910 | 68 | 184 | 1.0 | 8.0 | 0.00 | 0.00 | 0.00 | 67 | 1018.6 |
| 20260504140405 | 68 | 169 | 5.0 | 9.0 | 0.00 | 0.00 | 0.00 | 68 | 1018.8 |
| 20260504130330 | 64 | 181 | 4.0 | 6.0 | 0.00 | 0.00 | 0.00 | 74 | 1018.6 |
| 20260504120254 | 60 | 185 | 0.0 | 5.0 | 0.00 | 0.00 | 0.00 | 77 | 1018.4 |
| 20260504110218 | 60 | 184 | 4.0 | 6.0 | 0.00 | 0.00 | 0.00 | 75 | 1017.9 |
| 20260504100142 | 61 | 191 | 6.0 | 8.0 | 0.00 | 0.00 | 0.00 | 72 | 1018.2 |
| 20260504090104 | 61 | 204 | 2.0 | 5.0 | 0.00 | 0.00 | 0.00 | 72 | 1018.5 |
| 20260504081535 | 60 | 182 | 1.0 | 3.0 | 0.00 | 0.00 | 0.00 | 69 | 1018.5 |
| 20260504081030 | 60 | 153 | 3.0 | 6.0 | 0.00 | 0.00 | 0.00 | 69 | 1018.4 |
| 20260504080527 | 60 | 166 | 3.0 | 5.0 | 0.00 | 0.00 | 0.00 | 69 | 1018.4 |
| 20260504050341 | 58 | 177 | 0.0 | 2.0 | 0.00 | 0.00 | 0.00 | 69 | 1019.9 |
| 20260504045838 | 58 | 168 | 0.0 | 2.0 | 0.00 | 0.00 | 0.00 | 68 | 1019.7 |
| 20260504045338 | 58 | 177 | 1.0 | 2.0 | 0.00 | 0.00 | 0.00 | 68 | 1019.7 |
| 20260504044835 | 58 | 166 | 1.0 | 3.0 | 0.00 | 0.00 | 0.00 | 68 | 1019.7 |
| 20260504044332 | 58 | 185 | 1.0 | 2.0 | 0.00 | 0.00 | 0.00 | 68 | 1019.9 |
| 20260504043830 | 58 | 196 | 2.0 | 5.0 | 0.00 | 0.00 | 0.00 | 67 | 1019.8 |
| 20260504043326 | 58 | 211 | 2.0 | 2.0 | 0.00 | 0.00 | 0.00 | 67 | 1020.0 |
| 20260504042824 | 58 | 185 | 3.0 | 3.0 | 0.00 | 0.00 | 0.00 | 67 | 1019.9 |
| 20260504042320 | 58 | 181 | 2.0 | 6.0 | 0.00 | 0.00 | 0.00 | 66 | 1020.0 |
| 20260504041816 | 58 | 171 | 1.0 | 3.0 | 0.00 | 0.00 | 0.00 | 67 | 1020.0 |
| 20260504041313 | 58 | 177 | 1.0 | 5.0 | 0.00 | 0.00 | 0.00 | 66 | 1019.9 |
| 20260504040809 | 58 | 181 | 2.0 | 5.0 | 0.00 | 0.00 | 0.00 | 66 | 1020.0 |
| 20260504040307 | 59 | 197 | 2.0 | 2.0 | 0.00 | 0.00 | 0.00 | 66 | 1020.1 |
| 20260504035802 | 58 | 175 | 2.0 | 5.0 | 0.00 | 0.00 | 0.00 | 67 | 1020.1 |
| 20260504035300 | 59 | 184 | 2.0 | 3.0 | 0.00 | 0.00 | 0.00 | 66 | 1020.2 |
| 20260504034757 | 59 | 171 | 2.0 | 5.0 | 0.00 | 0.00 | 0.00 | 66 | 1020.2 |
| 20260504034254 | 59 | 166 | 2.0 | 5.0 | 0.00 | 0.00 | 0.00 | 66 | 1020.2 |
| 20260504033752 | 58 | 170 | 3.0 | 5.0 | 0.00 | 0.00 | 0.00 | 66 | 1020.4 |
| 20260504033249 | 58 | 177 | 3.0 | 5.0 | 0.00 | 0.00 | 0.00 | 67 | 1020.3 |
| 20260504032746 | 58 | 193 | 1.0 | 2.0 | 0.00 | 0.00 | 0.00 | 67 | 1020.5 |
| 20260504032243 | 58 | 198 | 2.0 | 2.0 | 0.00 | 0.00 | 0.00 | 68 | 1020.5 |
| 20260504031739 | 57 | 195 | 2.0 | 2.0 | 0.00 | 0.00 | 0.00 | 68 | 1020.6 |
| 20260504031237 | 58 | 185 | 1.0 | 1.0 | 0.00 | 0.00 | 0.00 | 68 | 1020.6 |
| 20260504030732 | 58 | 189 | 2.0 | 2.0 | 0.00 | 0.00 | 0.00 | 67 | 1020.6 |
| 20260504030230 | 58 | 177 | 2.0 | 2.0 | 0.00 | 0.00 | 0.00 | 68 | 1020.6 |
| 20260504025726 | 58 | 175 | 0.0 | 0.0 | 0.00 | 0.00 | 0.00 | 68 | 1020.6 |
| 20260504025223 | 58 | 175 | 0.0 | 0.0 | 0.00 | 0.00 | 0.00 | 67 | 1020.6 |
| 20260504024720 | 57 | 173 | 0.0 | 0.0 | 0.00 | 0.00 | 0.00 | 68 | 1020.5 |
| 20260504024217 | 57 | 183 | 0.0 | 0.0 | 0.00 | 0.00 | 0.00 | 70 | 1020.4 |
| 20260504023714 | 57 | 179 | 0.0 | 1.0 | 0.00 | 0.00 | 0.00 | 69 | 1020.5 |
| 20260504023209 | 57 | 184 | 2.0 | 2.0 | 0.00 | 0.00 | 0.00 | 70 | 1020.4 |
| 20260504022706 | 58 | 179 | 0.0 | 0.0 | 0.00 | 0.00 | 0.00 | 68 | 1020.4 |
| 20260504022202 | 58 | 178 | 1.0 | 3.0 | 0.00 | 0.00 | 0.00 | 66 | 1020.3 |
| 20260504021700 | 58 | 168 | 1.0 | 2.0 | 0.00 | 0.00 | 0.00 | 67 | 1020.3 |
| 20260504021156 | 58 | 179 | 1.0 | 2.0 | 0.00 | 0.00 | 0.00 | 67 | 1020.1 |
| 20260504020653 | 58 | 174 | 0.0 | 0.0 | 0.00 | 0.00 | 0.00 | 69 | 1019.9 |
| 20260504020149 | 57 | 175 | 0.0 | 0.0 | 0.00 | 0.00 | 0.00 | 68 | 1020.1 |
| 20260504015646 | 58 | 175 | 0.0 | 0.0 | 0.00 | 0.00 | 0.00 | 68 | 1020.0 |
| 20260504015143 | 58 | 176 | 0.0 | 0.0 | 0.00 | 0.00 | 0.00 | 68 | 1020.0 |
| 20260504014638 | 58 | 180 | 0.0 | 0.0 | 0.00 | 0.00 | 0.00 | 67 | 1019.9 |
| 20260504014136 | 58 | 182 | 0.0 | 0.0 | 0.00 | 0.00 | 0.00 | 67 | 1020.0 |
| 20260504013633 | 59 | 179 | 0.0 | 0.0 | 0.00 | 0.00 | 0.00 | 66 | 1019.8 |
| 20260504013130 | 59 | 178 | 0.0 | 0.0 | 0.00 | 0.00 | 0.00 | 65 | 1019.9 |
| 20260504012627 | 59 | 177 | 0.0 | 0.0 | 0.00 | 0.00 | 0.00 | 64 | 1019.8 |
| 20260504012125 | 59 | 177 | 0.0 | 0.0 | 0.00 | 0.00 | 0.00 | 62 | 1020.0 |
| 20260504011622 | 60 | 177 | 0.0 | 0.0 | 0.00 | 0.00 | 0.00 | 61 | 1020.0 |
| 20260504011118 | 60 | 176 | 0.0 | 0.0 | 0.00 | 0.00 | 0.00 | 61 | 1019.9 |
| 20260504010614 | 61 | 177 | 0.0 | 0.0 | 0.00 | 0.00 | 0.00 | 60 | 1020.0 |
| 20260504010110 | 62 | 176 | 0.0 | 0.0 | 0.00 | 0.00 | 0.00 | 58 | 1020.0 |
| 20260504005607 | 62 | 176 | 0.0 | 0.0 | 0.00 | 0.00 | 0.00 | 56 | 1019.9 |
| 20260504005104 | 63 | 176 | 0.0 | 0.0 | 0.00 | 0.00 | 0.00 | 54 | 1020.1 |
| 20260504004602 | 64 | 178 | 0.0 | 0.0 | 0.00 | 0.00 | 0.00 | 52 | 1020.1 |
| 20260504004059 | 65 | 180 | 0.0 | 0.0 | 0.00 | 0.00 | 0.00 | 51 | 1020.0 |
| 20260504003555 | 65 | 175 | 0.0 | 0.0 | 0.00 | 0.00 | 0.00 | 51 | 1020.0 |
| 20260504003052 | 66 | 177 | 0.0 | 0.0 | 0.00 | 0.00 | 0.00 | 50 | 1019.9 |
| 20260504002549 | 67 | 179 | 0.0 | 1.0 | 0.00 | 0.00 | 0.00 | 48 | 1019.8 |
| 20260504002046 | 67 | 177 | 0.0 | 1.0 | 0.00 | 0.00 | 0.00 | 48 | 1019.8 |
| 20260504001544 | 67 | 181 | 1.0 | 1.0 | 0.00 | 0.00 | 0.00 | 47 | 1019.8 |
| 20260504001040 | 68 | 221 | 1.0 | 3.0 | 0.00 | 0.00 | 0.00 | 46 | 1019.9 |
| 20260504000537 | 68 | 178 | 1.0 | 2.0 | 0.00 | 0.00 | 0.00 | 46 | 1020.0 |
| 20260504000035 | 69 | 176 | 2.0 | 3.0 | 0.00 | 0.00 | 0.00 | 45 | 1020.1 |
| 20260503235533 | 69 | 179 | 0.0 | 0.0 | 0.00 | 0.00 | 0.00 | 43 | 1020.1 |
| 20260503235029 | 69 | 180 | 1.0 | 6.0 | 0.00 | 0.00 | 0.00 | 43 | 1020.1 |
| 20260503234527 | 70 | 215 | 4.0 | 6.0 | 0.00 | 0.00 | 0.00 | 42 | 1020.1 |
| 20260503234025 | 70 | 179 | 1.0 | 3.0 | 0.00 | 0.00 | 0.00 | 41 | 1020.2 |
| 20260503233521 | 70 | 178 | 5.0 | 9.0 | 0.00 | 0.00 | 0.00 | 42 | 1020.3 |
| 20260503233017 | 70 | 184 | 1.0 | 3.0 | 0.00 | 0.00 | 0.00 | 42 | 1020.2 |
| 20260503232514 | 70 | 198 | 3.0 | 6.0 | 0.00 | 0.00 | 0.00 | 41 | 1020.3 |
| 20260503232012 | 70 | 175 | 1.0 | 2.0 | 0.00 | 0.00 | 0.00 | 42 | 1020.3 |
| 20260503231510 | 70 | 193 | 2.0 | 3.0 | 0.00 | 0.00 | 0.00 | 41 | 1020.5 |
| 20260503231006 | 70 | 352 | 3.0 | 10.0 | 0.00 | 0.00 | 0.00 | 42 | 1020.5 |
| 20260503230503 | 71 | 271 | 1.0 | 3.0 | 0.00 | 0.00 | 0.00 | 42 | 1020.2 |
| 20260503230000 | 71 | 173 | 2.0 | 3.0 | 0.00 | 0.00 | 0.00 | 42 | 1020.2 |
| 20260503225456 | 71 | 172 | 1.0 | 3.0 | 0.00 | 0.00 | 0.00 | 42 | 1020.3 |
| 20260503224952 | 71 | 174 | 3.0 | 7.0 | 0.00 | 0.00 | 0.00 | 41 | 1020.4 |
| 20260503224449 | 71 | 168 | 1.0 | 3.0 | 0.00 | 0.00 | 0.00 | 42 | 1020.5 |
| 20260503223947 | 71 | 163 | 2.0 | 2.0 | 0.00 | 0.00 | 0.00 | 41 | 1020.5 |
| 20260503223445 | 71 | 202 | 3.0 | 8.0 | 0.00 | 0.00 | 0.00 | 41 | 1020.7 |
| 20260503222940 | 72 | 157 | 5.0 | 8.0 | 0.00 | 0.00 | 0.00 | 38 | 1020.8 |
| 20260503222439 | 72 | 170 | 1.0 | 2.0 | 0.00 | 0.00 | 0.00 | 40 | 1020.9 |
| 20260503221937 | 72 | 170 | 2.0 | 7.0 | 0.00 | 0.00 | 0.00 | 39 | 1020.9 |
| 20260503221435 | 73 | 162 | 1.0 | 3.0 | 0.00 | 0.00 | 0.00 | 38 | 1020.9 |
| 20260503220931 | 74 | 186 | 1.0 | 2.0 | 0.00 | 0.00 | 0.00 | 37 | 1020.8 |
| 20260503220427 | 73 | 185 | 2.0 | 3.0 | 0.00 | 0.00 | 0.00 | 38 | 1021.0 |
| 20260503215925 | 72 | 223 | 4.0 | 5.0 | 0.00 | 0.00 | 0.00 | 39 | 1021.0 |
| 20260503215422 | 72 | 202 | 1.0 | 2.0 | 0.00 | 0.00 | 0.00 | 39 | 1021.2 |
| 20260503214919 | 72 | 169 | 6.0 | 8.0 | 0.00 | 0.00 | 0.00 | 39 | 1021.0 |
| 20260503214416 | 74 | 220 | 3.0 | 6.0 | 0.00 | 0.00 | 0.00 | 38 | 1021.1 |
| 20260503213914 | 75 | 161 | 2.0 | 3.0 | 0.00 | 0.00 | 0.00 | 35 | 1021.2 |
| 20260503213412 | 73 | 198 | 2.0 | 6.0 | 0.00 | 0.00 | 0.00 | 37 | 1021.4 |
| 20260503212908 | 76 | 177 | 1.0 | 2.0 | 0.00 | 0.00 | 0.00 | 38 | 1021.4 |
| 20260503212406 | 75 | 160 | 4.0 | 6.0 | 0.00 | 0.00 | 0.00 | 35 | 1021.5 |
| 20260503211903 | 75 | 198 | 2.0 | 2.0 | 0.00 | 0.00 | 0.00 | 37 | 1021.7 |
| 20260503211359 | 75 | 182 | 1.0 | 3.0 | 0.00 | 0.00 | 0.00 | 38 | 1021.8 |
| 20260503210854 | 75 | 169 | 3.0 | 5.0 | 0.00 | 0.00 | 0.00 | 37 | 1021.9 |
| 20260503210352 | 76 | 210 | 3.0 | 6.0 | 0.00 | 0.00 | 0.00 | 36 | 1022.0 |
| 20260503205847 | 74 | 182 | 0.0 | 2.0 | 0.00 | 0.00 | 0.00 | 38 | 1022.1 |
| 20260503205344 | 75 | 191 | 2.0 | 5.0 | 0.00 | 0.00 | 0.00 | 38 | 1022.1 |
| 20260503204840 | 74 | 251 | 2.0 | 5.0 | 0.00 | 0.00 | 0.00 | 38 | 1022.1 |
| 20260503204338 | 73 | 232 | 5.0 | 7.0 | 0.00 | 0.00 | 0.00 | 36 | 1022.2 |
| 20260503203835 | 76 | 220 | 1.0 | 6.0 | 0.00 | 0.00 | 0.00 | 39 | 1022.1 |
| 20260503203332 | 75 | 232 | 3.0 | 6.0 | 0.00 | 0.00 | 0.00 | 37 | 1022.1 |
| 20260503202829 | 75 | 254 | 2.0 | 3.0 | 0.00 | 0.00 | 0.00 | 38 | 1022.3 |
| 20260503202327 | 73 | 48 | 3.0 | 6.0 | 0.00 | 0.00 | 0.00 | 39 | 1022.4 |
| 20260503201826 | 73 | 168 | 2.0 | 6.0 | 0.00 | 0.00 | 0.00 | 37 | 1022.6 |
| 20260503201322 | 73 | 161 | 1.0 | 6.0 | 0.00 | 0.00 | 0.00 | 37 | 1022.5 |
| 20260503200820 | 75 | 153 | 4.0 | 7.0 | 0.00 | 0.00 | 0.00 | 38 | 1022.9 |
| 20260503200315 | 73 | 219 | 2.0 | 8.0 | 0.00 | 0.00 | 0.00 | 38 | 1022.7 |
| 20260503195813 | 74 | 194 | 7.0 | 9.0 | 0.00 | 0.00 | 0.00 | 37 | 1022.9 |
| 20260503195309 | 74 | 161 | 3.0 | 3.0 | 0.00 | 0.00 | 0.00 | 37 | 1023.0 |
| 20260503194807 | 73 | 155 | 2.0 | 2.0 | 0.00 | 0.00 | 0.00 | 40 | 1023.1 |
| 20260503194302 | 72 | 163 | 1.0 | 6.0 | 0.00 | 0.00 | 0.00 | 40 | 1023.0 |
| 20260503193758 | 72 | 166 | 9.0 | 15.0 | 0.00 | 0.00 | 0.00 | 37 | 1023.1 |
| 20260503193255 | 75 | 156 | 4.0 | 8.0 | 0.00 | 0.00 | 0.00 | 35 | 1023.2 |
| 20260503192750 | 74 | 89 | 2.0 | 5.0 | 0.00 | 0.00 | 0.00 | 35 | 1023.5 |
| 20260503192246 | 74 | 221 | 4.0 | 11.0 | 0.00 | 0.00 | 0.00 | 37 | 1023.6 |
| 20260503191743 | 75 | 48 | 2.0 | 5.0 | 0.00 | 0.00 | 0.00 | 37 | 1023.6 |
| 20260503191240 | 74 | 123 | 0.0 | 2.0 | 0.00 | 0.00 | 0.00 | 36 | 1023.8 |
| 20260503190737 | 72 | 163 | 2.0 | 5.0 | 0.00 | 0.00 | 0.00 | 38 | 1023.9 |
| 20260503190233 | 74 | 211 | 2.0 | 6.0 | 0.00 | 0.00 | 0.00 | 36 | 1024.1 |
| 20260503185731 | 73 | 111 | 3.0 | 5.0 | 0.00 | 0.00 | 0.00 | 39 | 1024.1 |
| 20260503185226 | 72 | 81 | 3.0 | 5.0 | 0.00 | 0.00 | 0.00 | 39 | 1024.2 |
| 20260503184721 | 72 | 169 | 2.0 | 6.0 | 0.00 | 0.00 | 0.00 | 39 | 1024.0 |
| 20260503184217 | 74 | 154 | 9.0 | 11.0 | 0.00 | 0.00 | 0.00 | 36 | 1024.2 |
| 20260503183714 | 73 | 152 | 1.0 | 3.0 | 0.00 | 0.00 | 0.00 | 37 | 1024.2 |
| 20260503183211 | 72 | 204 | 1.0 | 3.0 | 0.00 | 0.00 | 0.00 | 40 | 1024.3 |
| 20260503182709 | 72 | 244 | 4.0 | 6.0 | 0.00 | 0.00 | 0.00 | 41 | 1024.5 |
| 20260503182208 | 71 | 188 | 2.0 | 7.0 | 0.00 | 0.00 | 0.00 | 40 | 1024.5 |
| 20260503181703 | 72 | 193 | 5.0 | 7.0 | 0.00 | 0.00 | 0.00 | 40 | 1024.6 |
| 20260503181201 | 72 | 174 | 2.0 | 3.0 | 0.00 | 0.00 | 0.00 | 41 | 1024.8 |
| 20260503180657 | 73 | 355 | 2.0 | 10.0 | 0.00 | 0.00 | 0.00 | 39 | 1024.8 |